STARLINK-1718

operational
NORAD ID: 46674 Int'l Des: 2020-073 Owner: SPXS Country: US Constellation: starlink
LEOCIRCULARSTARLINK_TYPE

About STARLINK-1718

Description loading...

Live Position

Loading 3D Globe...

Upcoming Passes

Altitude History

Altitude vs Time

uPlot chart will show altitude changes over time

Two-Line Element Set

1 46674U 20073E 25251.52787182 .00014338 00000-0 97960-3 0 9997
2 46674 53.0557 339.3802 0001266 94.3224 265.7910 15.06396773269678
Epoch: Sep 8, 2025 • Age: 15 hours

Current Status

Altitude 551.4 km
Velocity 7.59 km/s
Sub-Earth Point 46.25°N, 9.67°W
Launch Date Oct 18, 2020
Age 4.8 years
Type internet

Technical Details

Classification Payload
Mass 260.00 kg
Dry Mass 248.00 kg
Total Mass 260.00 kg
Length 0.20 m
Diameter 2.80 m
Span 9.00 m
Shape Box + pan
Manufacturer SPXS
Bus Type Starlink
Phase Status In Orbit
Owner/State SPXS/US

Large Constellations

Loading constellations...